KC5TXI Weather Reports


Display with metric or nautical units.
time (UTC)temp
F
wind
direction
speed
MPH
gust
MPH
rain 1hr
in
rain 24hr
in
rain mn
in
humidity
%
barometer
mb
20180620040513 80 108 0.0 6.0 0.00 0.00 0.00 64 1012.9
20180620040013 80 111 0.0 6.0 0.00 0.00 0.00 63 1012.9
20180620035513 80 90 5.0 6.0 0.00 0.00 0.00 63 1012.9
20180620035013 80 123 0.0 6.0 0.00 0.00 0.00 63 1012.9
20180620034513 81 158 0.0 4.0 0.00 0.00 0.00 63 1012.9
20180620034013 81 127 0.0 5.0 0.00 0.00 0.00 63 1012.9
20180620033513 81 134 4.0 5.0 0.00 0.00 0.00 63 1012.9
20180620033028 81 159 0.0 5.0 0.00 0.00 0.00 63 1012.9
20180620032513 81 103 3.0 5.0 0.00 0.00 0.00 63 1012.9
20180620032013 81 142 0.0 5.0 0.00 0.00 0.00 63 1011.9
20180620031513 81 140 0.0 5.0 0.00 0.00 0.00 62 1011.9
20180620031013 81 114 0.0 6.0 0.00 0.00 0.00 62 1011.9
20180620030513 81 90 0.0 6.0 0.00 0.00 0.00 62 1011.9
20180620030013 81 63 5.0 5.0 0.00 0.00 0.00 62 1011.9
20180620025513 81 132 4.0 8.0 0.00 0.00 0.00 61 1011.9
20180620025029 81 162 0.0 8.0 0.00 0.00 0.00 61 1011.9
20180620024513 81 110 0.0 5.0 0.00 0.00 0.00 61 1011.9
20180620024013 81 129 0.0 5.0 0.00 0.00 0.00 61 1011.9
20180620023513 81 131 0.0 6.0 0.00 0.00 0.00 61 1011.9
20180620023013 81 169 4.0 8.0 0.00 0.00 0.00 61 1011.9
20180620022513 81 107 0.0 8.0 0.00 0.00 0.00 61 1011.9
20180620022013 81 106 0.0 7.0 0.00 0.00 0.00 61 1011.9
20180620021513 82 66 4.0 7.0 0.00 0.00 0.00 61 1011.9
20180620021013 82 126 6.0 6.0 0.00 0.00 0.00 61 1011.9
20180620020513 82 83 3.0 9.0 0.00 0.00 0.00 61 1011.9
20180620020013 82 119 0.0 9.0 0.00 0.00 0.00 61 1011.9
20180620015543 82 132 3.0 5.0 0.00 0.00 0.00 61 1011.9
20180620015013 82 106 4.0 8.0 0.00 0.00 0.00 61 1011.9
20180620014528 82 105 3.0 8.0 0.00 0.00 0.00 61 1011.9
20180620014013 82 94 3.0 6.0 0.00 0.00 0.00 61 1011.9
20180620013513 82 108 3.0 5.0 0.00 0.00 0.00 61 1011.9
20180620013028 82 59 3.0 7.0 0.00 0.00 0.00 62 1011.9
20180620012513 82 91 0.0 10.0 0.00 0.00 0.00 61 1011.9
20180620012013 82 120 5.0 10.0 0.00 0.00 0.00 61 1011.9
20180620011513 82 135 3.0 8.0 0.00 0.00 0.00 62 1011.9
20180620011013 82 86 3.0 6.0 0.00 0.00 0.00 62 1011.9
20180620010513 82 116 3.0 5.0 0.00 0.00 0.00 63 1011.9
20180620010013 82 122 4.0 9.0 0.00 0.00 0.00 62 1011.9
20180620005513 82 117 0.0 9.0 0.00 0.00 0.00 62 1011.9
20180620005013 82 121 0.0 5.0 0.00 0.00 0.00 63 1011.9
20180620004512 83 149 5.0 7.0 0.00 0.00 0.00 63 1011.9
20180620004013 83 87 0.0 7.0 0.00 0.00 0.00 62 1011.9
20180620003528 83 137 5.0 8.0 0.00 0.00 0.00 62 1011.9
20180620003012 83 131 5.0 8.0 0.00 0.00 0.00 61 1011.9
20180620002513 83 128 0.0 9.0 0.00 0.00 0.00 61 1011.9
20180620002012 84 105 3.0 10.0 0.00 0.00 0.00 59 1011.9
20180620001542 84 118 4.0 10.0 0.00 0.00 0.00 58 1011.9
20180620001012 85 134 8.0 9.0 0.00 0.00 0.00 59 1011.9
20180620000512 85 117 5.0 7.0 0.00 0.00 0.00 61 1011.9
20180620000028 85 131 0.0 7.0 0.00 0.00 0.00 61 1011.9
20180619235528 85 106 6.0 7.0 0.00 0.00 0.00 60 1011.9
20180619235012 85 158 0.0 7.0 0.00 0.00 0.00 60 1011.9
20180619234512 85 93 0.0 7.0 0.00 0.00 0.00 61 1011.9
20180619234012 85 103 3.0 5.0 0.00 0.00 0.00 61 1011.9
20180619233528 85 161 0.0 5.0 0.00 0.00 0.00 60 1011.9
20180619233012 85 112 4.0 5.0 0.00 0.00 0.00 61 1011.9
20180619232512 84 139 3.0 7.0 0.00 0.00 0.00 61 1011.9
20180619232012 84 113 4.0 7.0 0.00 0.00 0.00 60 1011.9
20180619231512 85 65 0.0 6.0 0.00 0.00 0.00 59 1011.9
20180619231012 85 116 4.0 7.0 0.00 0.00 0.00 59 1011.9
20180619230528 85 148 4.0 8.0 0.00 0.00 0.00 59 1011.9
20180619230029 85 127 7.0 8.0 0.00 0.00 0.00 59 1011.9
20180619225513 85 132 3.0 5.0 0.00 0.00 0.00 61 1011.9
20180619225013 85 101 4.0 5.0 0.00 0.00 0.00 63 1011.9
20180619224512 85 218 0.0 5.0 0.00 0.00 0.00 62 1011.9
20180619224012 85 149 0.0 4.0 0.00 0.00 0.00 62 1011.9
20180619223512 85 153 3.0 5.0 0.00 0.00 0.00 61 1011.9
20180619223012 85 152 3.0 5.0 0.00 0.00 0.00 59 1011.9
20180619222512 86 123 0.0 5.0 0.00 0.00 0.00 59 1011.9
20180619222012 87 112 0.0 5.0 0.00 0.00 0.00 59 1012.9
20180619221542 86 115 5.0 5.0 0.00 0.00 0.00 59 1012.9
20180619221028 86 104 0.0 7.0 0.00 0.00 0.00 60 1012.9
20180619220512 86 249 3.0 7.0 0.00 0.00 0.00 59 1012.9
20180619220012 86 178 3.0 6.0 0.00 0.00 0.00 59 1012.9
20180619215512 85 119 0.0 7.0 0.00 0.00 0.00 60 1012.9
20180619215028 85 94 3.0 7.0 0.00 0.00 0.00 61 1012.9
20180619214512 85 108 3.0 8.0 0.00 0.00 0.00 62 1012.9
20180619214012 84 111 4.0 8.0 0.00 0.00 0.00 63 1012.9
20180619213528 83 107 7.0 7.0 0.00 0.00 0.00 67 1012.9
20180619213012 81 114 3.0 7.0 0.00 0.00 0.00 68 1012.9
20180619212512 81 260 0.0 8.0 0.00 0.00 0.00 69 1012.9
20180619212012 82 166 4.0 8.0 0.00 0.00 0.00 68 1012.9
20180619211512 82 92 5.0 8.0 0.00 0.00 0.00 66 1012.9
20180619211042 83 100 0.0 13.0 0.00 0.00 0.00 65 1012.9
20180619210512 83 131 3.0 13.0 0.00 0.00 0.00 62 1012.9
20180619210012 84 109 7.0 9.0 0.00 0.00 0.00 62 1012.9
20180619205512 84 71 5.0 7.0 0.00 0.00 0.00 64 1012.9
20180619205012 83 76 3.0 5.0 0.00 0.00 0.00 64 1012.9
20180619204512 83 53 0.0 6.0 0.00 0.00 0.00 65 1012.9
20180619204012 83 162 3.0 7.0 0.00 0.00 0.00 62 1012.9
20180619203512 84 66 6.0 9.0 0.00 0.00 0.00 61 1012.9
20180619203012 86 208 6.0 9.0 0.00 0.00 0.00 60 1012.9
20180619202512 87 46 5.0 7.0 0.00 0.00 0.00 56 1012.9
20180619202012 87 2 5.0 7.0 0.00 0.00 0.00 54 1012.9
20180619201512 88 129 6.0 6.0 0.00 0.00 0.00 52 1012.9
20180619201012 87 89 5.0 6.0 0.00 0.00 0.00 53 1012.9
20180619200528 86 110 4.0 6.0 0.00 0.00 0.00 56 1012.9
20180619200011 86 121 0.0 6.0 0.00 0.00 0.00 54 1012.9
20180619195512 86 77 3.0 5.0 0.00 0.00 0.00 54 1012.9
20180619195012 86 107 3.0 6.0 0.00 0.00 0.00 55 1013.9
20180619194511 85 90 3.0 6.0 0.00 0.00 0.00 58 1013.9
20180619194027 85 108 5.0 6.0 0.00 0.00 0.00 58 1013.9
20180619193541 84 118 4.0 6.0 0.00 0.00 0.00 57 1013.9
20180619193012 84 108 6.0 6.0 0.00 0.00 0.00 57 1013.9
20180619192512 84 168 6.0 7.0 0.00 0.00 0.00 57 1013.9
20180619192011 84 155 3.0 7.0 0.00 0.00 0.00 57 1013.9
20180619191511 84 149 0.0 7.0 0.00 0.00 0.00 58 1013.9
20180619191012 84 104 4.0 7.0 0.00 0.00 0.00 58 1013.9
20180619190512 84 71 5.0 7.0 0.00 0.00 0.00 59 1013.9
20180619190011 84 76 0.0 7.0 0.00 0.00 0.00 59 1013.9
20180619185511 84 77 3.0 7.0 0.00 0.00 0.00 58 1013.9
20180619185012 84 180 3.0 7.0 0.00 0.00 0.00 59 1013.9
20180619184541 84 113 3.0 6.0 0.00 0.00 0.00 60 1013.9
20180619184012 84 90 0.0 6.0 0.00 0.00 0.00 60 1013.9
20180619183512 84 144 4.0 6.0 0.00 0.00 0.00 61 1013.9
20180619183011 83 153 3.0 7.0 0.00 0.00 0.00 61 1013.9
20180619182511 83 59 5.0 7.0 0.00 0.00 0.00 61 1013.9
20180619182012 83 86 3.0 8.0 0.00 0.00 0.00 61 1013.9
20180619181511 83 151 4.0 8.0 0.00 0.00 0.00 61 1013.9
20180619181027 83 77 6.0 8.0 0.00 0.00 0.00 62 1013.9
20180619180511 83 130 3.0 5.0 0.00 0.00 0.00 63 1013.9
20180619180011 83 99 3.0 6.0 0.00 0.00 0.00 63 1013.9
20180619175511 83 112 0.0 6.0 0.00 0.00 0.00 62 1013.9
20180619175012 83 105 4.0 7.0 0.00 0.00 0.00 61 1014.9
20180619174511 84 100 3.0 7.0 0.00 0.00 0.00 61 1014.9
20180619174011 84 122 3.0 6.0 0.00 0.00 0.00 61 1014.9
20180619173511 84 97 0.0 6.0 0.00 0.00 0.00 60 1014.9
20180619173011 84 141 4.0 7.0 0.00 0.00 0.00 61 1014.9
20180619172511 84 126 3.0 8.0 0.00 0.00 0.00 61 1014.9
20180619172011 84 159 4.0 8.0 0.00 0.00 0.00 62 1014.9
20180619171513 83 124 3.0 7.0 0.00 0.00 0.00 64 1014.9
20180619171011 82 143 4.0 6.0 0.00 0.00 0.00 65 1014.9
20180619170511 82 94 4.0 6.0 0.00 0.00 0.00 65 1014.9
20180619170011 82 127 0.0 7.0 0.00 0.00 0.00 65 1014.9
20180619165511 82 147 4.0 7.0 0.00 0.00 0.00 64 1014.9
20180619165027 82 146 0.0 7.0 0.00 0.00 0.00 64 1014.9
20180619164511 82 178 3.0 7.0 0.00 0.00 0.00 63 1014.9
20180619164011 82 103 4.0 7.0 0.00 0.00 0.00 64 1014.9
20180619163511 82 110 0.0 7.0 0.00 0.00 0.00 64 1014.9
20180619163011 82 228 4.0 7.0 0.00 0.00 0.00 65 1014.9
20180619162511 82 121 5.0 7.0 0.00 0.00 0.00 65 1014.9
20180619162011 82 149 4.0 6.0 0.00 0.00 0.00 66 1014.9
20180619161511 82 131 4.0 7.0 0.00 0.00 0.00 66 1014.9
20180619161011 82 111 5.0 7.0 0.00 0.00 0.00 66 1014.9
20180619160511 81 48 5.0 7.0 0.00 0.00 0.00 68 1014.9
20180619160011 81 124 3.0 7.0 0.00 0.00 0.00 68 1014.9
20180619155526 81 137 4.0 7.0 0.00 0.00 0.00 68 1014.9
20180619155011 81 131 3.0 7.0 0.00 0.00 0.00 69 1014.9
20180619154511 80 122 4.0 7.0 0.00 0.00 0.00 70 1014.9
20180619154011 80 161 4.0 7.0 0.00 0.00 0.00 71 1014.9
20180619153511 80 149 3.0 7.0 0.00 0.00 0.00 70 1014.9
20180619153011 80 75 0.0 7.0 0.00 0.00 0.00 71 1014.9
20180619152511 79 109 5.0 7.0 0.00 0.00 0.00 74 1014.9
20180619152026 79 135 5.0 8.0 0.00 0.00 0.00 75 1014.9
20180619151511 79 147 0.0 8.0 0.00 0.00 0.00 75 1014.9
20180619151011 79 128 8.0 8.0 0.00 0.00 0.00 74 1014.9
20180619150511 79 141 3.0 6.0 0.00 0.00 0.00 74 1014.9
20180619150011 79 109 0.0 7.0 0.00 0.00 0.00 76 1014.9
20180619145526 79 123 5.0 7.0 0.00 0.00 0.00 75 1014.9
20180619145011 79 120 4.0 7.0 0.00 0.00 0.00 75 1014.9
20180619144511 79 105 3.0 8.0 0.00 0.00 0.00 75 1014.9
20180619144011 78 147 5.0 8.0 0.00 0.00 0.00 76 1014.9
20180619143511 78 152 4.0 8.0 0.00 0.00 0.00 77 1014.9
20180619143011 78 123 3.0 9.0 0.00 0.00 0.00 77 1014.9
20180619142511 78 127 4.0 9.0 0.00 0.00 0.00 78 1014.9
20180619142011 78 114 5.0 7.0 0.00 0.00 0.00 78 1014.9
20180619141511 78 131 5.0 7.0 0.00 0.00 0.00 78 1014.9
20180619141011 78 131 4.0 7.0 0.00 0.00 0.00 78 1014.9
20180619140541 78 115 4.0 7.0 0.00 0.00 0.00 77 1015.9
20180619140010 78 143 4.0 6.0 0.00 0.00 0.00 77 1015.9
20180619135511 78 107 4.0 7.0 0.00 0.00 0.00 78 1015.9
20180619135011 78 122 3.0 7.0 0.00 0.00 0.00 80 1014.9
20180619134510 78 109 0.0 7.0 0.00 0.00 0.00 82 1014.9
20180619134011 77 101 3.0 8.0 0.00 0.00 0.00 82 1014.9
20180619133511 77 169 3.0 8.0 0.00 0.00 0.00 82 1015.9
20180619133010 77 123 0.0 6.0 0.00 0.00 0.00 83 1015.9
20180619132511 77 94 6.0 6.0 0.00 0.00 0.00 84 1015.9
20180619132011 77 160 6.0 7.0 0.00 0.00 0.00 84 1014.9
20180619131511 77 138 6.0 7.0 0.00 0.00 0.00 85 1014.9
20180619131011 76 125 7.0 7.0 0.00 0.00 0.00 86 1014.9
20180619130510 76 225 0.0 6.0 0.00 0.00 0.00 86 1014.9
20180619130010 76 121 4.0 7.0 0.00 0.00 0.00 87 1014.9
20180619125510 76 87 3.0 7.0 0.00 0.00 0.00 87 1014.9
20180619125011 76 15 3.0 6.0 0.00 0.00 0.00 87 1014.9
20180619124511 76 112 0.0 6.0 0.00 0.00 0.00 87 1014.9
20180619124010 76 120 3.0 6.0 0.00 0.00 0.00 87 1014.9
20180619123510 75 159 0.0 4.0 0.00 0.00 0.00 87 1014.9
20180619123026 75 149 0.0 5.0 0.00 0.00 0.00 87 1014.9
20180619122511 75 123 0.0 6.0 0.00 0.00 0.00 88 1014.9
20180619122010 75 196 4.0 6.0 0.00 0.00 0.00 88 1014.9
20180619121511 75 141 0.0 0.0 0.00 0.00 0.00 88 1014.9
20180619121010 75 133 0.0 5.0 0.00 0.00 0.00 88 1014.9
20180619120511 75 144 0.0 5.0 0.00 0.00 0.00 88 1014.9
20180619120010 75 129 0.0 5.0 0.00 0.00 0.00 88 1014.9
20180619115510 75 127 0.0 0.0 0.00 0.00 0.00 87 1014.9
20180619115011 75 125 0.0 0.0 0.00 0.00 0.00 87 1014.9
20180619114511 75 135 0.0 3.0 0.00 0.00 0.00 87 1014.9
20180619114010 75 130 0.0 4.0 0.00 0.00 0.00 87 1014.9
20180619113510 75 132 0.0 4.0 0.00 0.00 0.00 87 1014.9
20180619113011 75 123 0.0 0.0 0.00 0.00 0.00 87 1014.9
20180619112510 75 94 0.0 5.0 0.00 0.00 0.00 87 1014.9
20180619112010 75 109 0.0 5.0 0.00 0.00 0.00 87 1014.9
20180619111510 75 56 0.0 4.0 0.00 0.00 0.00 87 1014.9
20180619111010 75 154 0.0 4.0 0.00 0.00 0.00 87 1014.9
20180619110510 75 170 0.0 4.0 0.00 0.00 0.00 88 1014.9
20180619110010 75 186 0.0 4.0 0.00 0.00 0.00 88 1014.9
20180619105510 75 137 0.0 3.0 0.00 0.00 0.00 88 1014.9
20180619105010 75 138 0.0 3.0 0.00 0.00 0.00 88 1014.9
20180619104510 75 116 0.0 0.0 0.00 0.00 0.00 88 1014.9
20180619104010 75 117 0.0 0.0 0.00 0.00 0.00 88 1014.9
20180619103510 75 115 0.0 0.0 0.00 0.00 0.00 88 1014.9
20180619103010 75 116 0.0 0.0 0.00 0.00 0.00 88 1014.9
20180619102510 75 118 0.0 3.0 0.00 0.00 0.00 88 1014.9
20180619102010 75 120 0.0 3.0 0.00 0.00 0.00 88 1014.9
20180619101510 75 102 3.0 3.0 0.00 0.00 0.00 87 1014.9
20180619101025 75 146 0.0 3.0 0.00 0.00 0.00 87 1014.9
20180619100510 75 114 0.0 4.0 0.00 0.00 0.00 87 1014.9
20180619100010 75 93 0.0 4.0 0.00 0.00 0.00 87 1014.9
20180619095510 75 158 0.0 0.0 0.00 0.00 0.00 86 1014.9
20180619095010 75 134 0.0 0.0 0.00 0.00 0.00 86 1014.9
20180619094510 75 140 0.0 3.0 0.00 0.00 0.00 86 1014.9
20180619094010 75 128 0.0 3.0 0.00 0.00 0.00 85 1014.9
20180619093510 75 151 0.0 4.0 0.00 0.00 0.00 85 1013.9
20180619093040 75 134 0.0 4.0 0.00 0.00 0.00 85 1013.9
20180619092510 75 114 0.0 5.0 0.00 0.00 0.00 84 1013.9
20180619092010 75 113 0.0 5.0 0.00 0.00 0.00 84 1013.9
20180619091026 75 110 0.0 5.0 0.00 0.00 0.00 83 1013.9
20180619090510 75 124 0.0 5.0 0.00 0.00 0.00 81 1013.9
20180619090012 75 110 0.0 0.0 0.00 0.00 0.00 81 1013.9
20180619085010 75 109 0.0 0.0 0.00 0.00 0.00 79 1013.9
20180619084510 76 108 0.0 0.0 0.00 0.00 0.00 79 1013.9
20180619084010 76 114 0.0 4.0 0.00 0.00 0.00 79 1013.9
20180619083510 76 114 0.0 4.0 0.00 0.00 0.00 78 1013.9
20180619083010 76 110 4.0 5.0 0.00 0.00 0.00 77 1013.9
20180619082510 77 113 0.0 6.0 0.00 0.00 0.00 77 1013.9
20180619082027 77 114 0.0 7.0 0.00 0.00 0.00 75 1013.9
20180619081510 77 106 0.0 7.0 0.00 0.00 0.00 75 1013.9
20180619081010 77 113 3.0 5.0 0.00 0.00 0.00 74 1013.9
20180619080510 77 109 0.0 7.0 0.00 0.00 0.00 74 1013.9
20180619080010 77 139 5.0 8.0 0.00 0.00 0.00 73 1013.9
20180619075509 77 120 3.0 8.0 0.00 0.00 0.00 73 1013.9
20180619075010 77 130 3.0 6.0 0.00 0.00 0.00 72 1013.9
20180619074510 77 165 4.0 5.0 0.00 0.00 0.00 72 1013.9
20180619074010 77 109 0.0 6.0 0.00 0.00 0.00 72 1013.9
20180619073510 77 118 0.0 6.0 0.00 0.00 0.00 72 1013.9
20180619073009 77 124 3.0 7.0 0.00 0.00 0.00 72 1013.9
20180619072510 77 138 3.0 7.0 0.00 0.00 0.00 72 1013.9
20180619072012 77 150 0.0 7.0 0.00 0.00 0.00 72 1013.9
20180619071511 77 174 3.0 8.0 0.00 0.00 0.00 72 1013.9
20180619071009 78 124 4.0 8.0 0.00 0.00 0.00 72 1013.9
20180619070510 78 242 4.0 7.0 0.00 0.00 0.00 72 1013.9
20180619070010 78 140 3.0 7.0 0.00 0.00 0.00 72 1013.9
20180619065510 78 138 0.0 7.0 0.00 0.00 0.00 72 1013.9
20180619065010 78 198 0.0 6.0 0.00 0.00 0.00 73 1013.9
20180619064525 78 125 0.0 7.0 0.00 0.00 0.00 73 1013.9
20180619064009 78 128 0.0 7.0 0.00 0.00 0.00 73 1013.9
20180619063510 78 156 0.0 6.0 0.00 0.00 0.00 73 1014.9
20180619063009 78 199 0.0 5.0 0.00 0.00 0.00 73 1014.9
20180619062510 78 155 0.0 6.0 0.00 0.00 0.00 73 1014.9
20180619062010 78 184 0.0 6.0 0.00 0.00 0.00 73 1014.9
20180619061510 78 114 5.0 6.0 0.00 0.00 0.00 72 1014.9
20180619061009 78 96 3.0 7.0 0.00 0.00 0.00 72 1014.9
20180619060539 78 151 4.0 8.0 0.00 0.00 0.00 72 1014.9
20180619060009 78 145 0.0 8.0 0.00 0.00 0.00 73 1014.9
20180619055510 78 99 0.0 7.0 0.00 0.00 0.00 73 1014.9
20180619055009 78 150 0.0 7.0 0.00 0.00 0.00 73 1014.9
20180619054510 78 128 0.0 7.0 0.00 0.00 0.00 73 1014.9
20180619054009 78 43 3.0 5.0 0.00 0.00 0.00 73 1014.9
20180619053525 77 159 0.0 5.0 0.00 0.00 0.00 73 1014.9
20180619053025 77 167 0.0 5.0 0.00 0.00 0.00 73 1014.9
20180619052509 77 118 0.0 5.0 0.00 0.00 0.00 73 1014.9
20180619052009 78 118 0.0 6.0 0.00 0.00 0.00 72 1014.9
20180619051509 78 102 0.0 6.0 0.00 0.00 0.00 71 1014.9
20180619051009 78 132 0.0 6.0 0.00 0.00 0.00 71 1014.9
20180619050509 78 116 0.0 8.0 0.00 0.00 0.00 70 1014.9
20180619050009 78 159 0.0 8.0 0.00 0.00 0.00 69 1014.9
20180619045509 78 220 4.0 9.0 0.00 0.00 0.00 69 1014.9
20180619045009 79 97 4.0 9.0 0.00 0.00 0.00 68 1014.9
20180619044509 79 145 4.0 7.0 0.00 0.00 0.00 68 1014.9
20180619044009 79 178 0.0 7.0 0.00 0.00 0.00 67 1014.9
20180619043509 79 97 4.0 6.0 0.00 0.00 0.00 67 1014.9
20180619043009 79 127 0.0 9.0 0.00 0.00 0.00 67 1014.9
20180619042509 79 121 3.0 9.0 0.00 0.00 0.00 67 1014.9
20180619042011 80 125 0.0 10.0 0.00 0.00 0.00 66 1014.9
20180619041525 80 103 5.0 10.0 0.00 0.00 0.00 66 1014.9
20180619041009 80 137 0.0 8.0 0.00 0.00 0.00 65 1014.9